Find Kosmos-2390

NORAD ID: 27464 Int'l Des: 2002-036 Owner: KVR Country: RU operational
LEOCIRCULARPOLAR

实时位置

正在加载3D地球...

关于 Kosmos-2390

正在加载描述...

即将过境

Passes for default location (London). Set your location on the main map for personalized predictions.

高度历史

Loading altitude history...

两行轨道根数

1 27464U 02036A 26104.93969076 .00000000 00000-0 -68240-4 0 9991
2 27464 82.4882 24.4988 0026480 38.1932 322.1019 12.44621170 79808
Epoch: Apr 14, 2026 • Age: 8 hours

当前状态

高度 1477.4 km
速度 7.14 km/s
星下点 58.06°N, 94.26°E
发射日期 Jul 8, 2002
运行时间 23.7 years
类型 other

技术详情

分类 Payload
质量 225.00 kg
干质量 225.00 kg
总质量 225.00 kg
长度 1.60 m
直径 0.80 m
跨度 7.00 m
形状 Cyl + Ant
制造商 NPOPMR
平台类型 Strela-3
阶段状态 In Orbit
所有者/国家 KVR/RU

Most Searched